BAW221 EGPF-EGKK

Flight info

Callsign BAW221
Flight time 1h 12m
Altitude 37000
Route NORB1J NORBO T256 DCS DCT ADZOP DCT EGTOC DCT KEPAD L151 DISIT DISI1G
Aircraft A319/M-SDE3FGHIRWY/LB1

Departure

Time 2026-05-06 16:58
Airport Glasgow Airport (EGPF)

Arrival

Time 2026-05-06 18:11
Airport London Gatwick Airport (EGKK)
Time Latitude Longitude Altitude Speed Heading
2026-05-06 16:40 55.86637 -4.43311 25 ft 0 kts 253°
2026-05-06 16:50 55.86644 -4.43271 23 ft 3 kts 254°
2026-05-06 16:50 55.86649 -4.43226 24 ft 3 kts 279°
2026-05-06 16:51 55.86634 -4.43191 25 ft 3 kts 332°
2026-05-06 16:51 55.86627 -4.43186 25 ft 0 kts 348°
2026-05-06 16:53 55.86633 -4.43188 25 ft 2 kts 349°
2026-05-06 16:53 55.86634 -4.43188 25 ft 0 kts 349°
2026-05-06 16:54 55.86634 -4.43189 25 ft 0 kts 341°
2026-05-06 16:54 55.86648 -4.43208 24 ft 4 kts 320°
2026-05-06 16:54 55.86678 -4.43236 24 ft 0 kts 340°
2026-05-06 16:55 55.86687 -4.43241 23 ft 8 kts 341°
2026-05-06 16:55 55.86771 -4.43295 22 ft 14 kts 321°
2026-05-06 16:55 55.86776 -4.43462 21 ft 15 kts 255°
2026-05-06 16:56 55.86739 -4.43701 21 ft 25 kts 254°
2026-05-06 16:56 55.86652 -4.43894 21 ft 17 kts 227°
2026-05-06 16:56 55.86567 -4.44061 21 ft 18 kts 228°
2026-05-06 16:56 55.86509 -4.44163 21 ft 9 kts 227°
2026-05-06 16:57 55.86431 -4.44316 21 ft 34 kts 229°
2026-05-06 16:57 55.86289 -4.44583 21 ft 26 kts 231°
2026-05-06 16:57 55.86269 -4.44755 21 ft 15 kts 323°
2026-05-06 16:57 55.86364 -4.44857 21 ft 14 kts
2026-05-06 16:58 55.86548 -4.44527 21 ft 73 kts 47°
2026-05-06 16:58 55.87060 -4.43571 19 ft 137 kts 46°
2026-05-06 16:58 55.87760 -4.42260 487 ft 146 kts 45°
2026-05-06 16:58 55.88465 -4.40989 1080 ft 149 kts 51°
2026-05-06 16:59 55.89173 -4.39630 1668 ft 154 kts 50°
2026-05-06 16:59 55.89916 -4.38209 2182 ft 166 kts 49°
2026-05-06 16:59 55.90743 -4.36659 2699 ft 180 kts 48°
2026-05-06 16:59 55.91647 -4.34986 3228 ft 196 kts 47°
2026-05-06 17:00 55.92650 -4.33182 3746 ft 215 kts 41°
2026-05-06 17:00 55.94049 -4.31989 4201 ft 239 kts
2026-05-06 17:00 55.95716 -4.32454 4781 ft 256 kts 330°
2026-05-06 17:00 55.96974 -4.34704 5411 ft 266 kts 295°
2026-05-06 17:01 55.97616 -4.37772 5964 ft 268 kts 285°
2026-05-06 17:01 55.97881 -4.41059 6617 ft 268 kts 262°
2026-05-06 17:01 55.97346 -4.44185 7289 ft 269 kts 244°
2026-05-06 17:01 55.96515 -4.47136 7957 ft 271 kts 242°
2026-05-06 17:02 55.95490 -4.49945 8610 ft 272 kts 224°
2026-05-06 17:02 55.93886 -4.51711 9274 ft 275 kts 198°
2026-05-06 17:02 55.91992 -4.51951 9931 ft 280 kts 171°
2026-05-06 17:02 55.90151 -4.50809 10594 ft 288 kts 157°
2026-05-06 17:03 55.88351 -4.49233 11251 ft 296 kts 155°
2026-05-06 17:03 55.86487 -4.47503 11928 ft 304 kts 154°
2026-05-06 17:03 55.84615 -4.45744 12590 ft 310 kts 154°
2026-05-06 17:03 55.82703 -4.43937 13256 ft 316 kts 154°
2026-05-06 17:04 55.80767 -4.42094 13900 ft 321 kts 154°
2026-05-06 17:04 55.78790 -4.40198 14541 ft 327 kts 154°
2026-05-06 17:04 55.76801 -4.38284 15191 ft 333 kts 153°
2026-05-06 17:04 55.74764 -4.36211 15753 ft 341 kts 153°
2026-05-06 17:05 55.72692 -4.34077 16054 ft 356 kts 152°
2026-05-06 17:05 55.70500 -4.31825 16324 ft 371 kts 152°
2026-05-06 17:05 55.68237 -4.29506 16588 ft 386 kts 152°
2026-05-06 17:05 55.65873 -4.27086 17087 ft 393 kts 152°
2026-05-06 17:06 55.63541 -4.24698 18087 ft 385 kts 153°
2026-05-06 17:06 55.61293 -4.22406 19123 ft 375 kts 153°
2026-05-06 17:06 55.59055 -4.20130 20140 ft 366 kts 153°
2026-05-06 17:06 55.56869 -4.17915 20852 ft 366 kts 153°
2026-05-06 17:07 55.54659 -4.15683 21386 ft 370 kts 153°
2026-05-06 17:07 55.52431 -4.13435 21909 ft 374 kts 153°
2026-05-06 17:07 55.50180 -4.11163 22448 ft 377 kts 153°
2026-05-06 17:07 55.47890 -4.08853 22970 ft 381 kts 153°
2026-05-06 17:08 55.45580 -4.06523 23470 ft 385 kts 153°
2026-05-06 17:08 55.43283 -4.04210 23973 ft 388 kts 153°
2026-05-06 17:08 55.40917 -4.01833 24470 ft 391 kts 153°
2026-05-06 17:08 55.38575 -3.99482 24934 ft 395 kts 153°
2026-05-06 17:09 55.36190 -3.97090 25378 ft 398 kts 153°
2026-05-06 17:09 55.33753 -3.94654 25828 ft 402 kts 152°
2026-05-06 17:09 55.31340 -3.92242 26279 ft 405 kts 152°
2026-05-06 17:09 55.28893 -3.89800 26708 ft 409 kts 152°
2026-05-06 17:10 55.26402 -3.87316 27118 ft 412 kts 152°
2026-05-06 17:10 55.23915 -3.84839 27520 ft 415 kts 152°
2026-05-06 17:10 55.21432 -3.82369 28113 ft 413 kts 152°
2026-05-06 17:10 55.18929 -3.79882 28740 ft 410 kts 152°
2026-05-06 17:11 55.16459 -3.77434 29165 ft 412 kts 152°
2026-05-06 17:11 55.13976 -3.74976 29532 ft 416 kts 151°
2026-05-06 17:11 55.11456 -3.72486 29911 ft 419 kts 151°
2026-05-06 17:11 55.08923 -3.69986 30301 ft 421 kts 151°
2026-05-06 17:12 55.06383 -3.67480 30660 ft 424 kts 151°
2026-05-06 17:12 55.03818 -3.64956 31007 ft 426 kts 151°
2026-05-06 17:12 55.01210 -3.62391 31353 ft 428 kts 151°
2026-05-06 17:12 54.98645 -3.59871 31678 ft 431 kts 150°
2026-05-06 17:13 54.96039 -3.57313 31975 ft 434 kts 150°
2026-05-06 17:13 54.93381 -3.54708 32285 ft 437 kts 150°
2026-05-06 17:13 54.90743 -3.52127 32610 ft 439 kts 150°
2026-05-06 17:13 54.88094 -3.49541 32915 ft 441 kts 150°
2026-05-06 17:14 54.85402 -3.46917 33224 ft 443 kts 150°
2026-05-06 17:14 54.82722 -3.44311 33506 ft 445 kts 150°
2026-05-06 17:14 54.80026 -3.41693 33763 ft 448 kts 150°
2026-05-06 17:14 54.77288 -3.39239 34007 ft 449 kts 154°
2026-05-06 17:15 54.74423 -3.37111 34265 ft 451 kts 159°
2026-05-06 17:15 54.71433 -3.35344 34512 ft 453 kts 164°
2026-05-06 17:15 54.68418 -3.33996 34758 ft 454 kts 169°
2026-05-06 17:15 54.65281 -3.33027 34993 ft 455 kts 174°
2026-05-06 17:16 54.62144 -3.32451 35171 ft 457 kts 177°
2026-05-06 17:16 54.58988 -3.31974 35328 ft 458 kts 177°
2026-05-06 17:16 54.55829 -3.31499 35512 ft 457 kts 176°
2026-05-06 17:16 54.52687 -3.31014 35689 ft 457 kts 176°
2026-05-06 17:17 54.49538 -3.30517 35857 ft 458 kts 176°
2026-05-06 17:17 54.46381 -3.30018 36013 ft 458 kts 176°
2026-05-06 17:17 54.43221 -3.29518 36167 ft 459 kts 176°
2026-05-06 17:17 54.40054 -3.29018 36313 ft 459 kts 176°
2026-05-06 17:18 54.36892 -3.28519 36509 ft 460 kts 176°
2026-05-06 17:18 54.33712 -3.28019 36705 ft 460 kts 176°
2026-05-06 17:18 54.30534 -3.27520 36889 ft 461 kts 176°
2026-05-06 17:18 54.27342 -3.27020 36990 ft 462 kts 177°
2026-05-06 17:19 54.24124 -3.26517 36998 ft 461 kts 177°
2026-05-06 17:19 54.17777 -3.25526 37264 ft 461 kts 176°
2026-05-06 17:19 54.14608 -3.25027 37136 ft 459 kts 176°
2026-05-06 17:20 54.11454 -3.24530 37075 ft 458 kts 176°
2026-05-06 17:20 54.05122 -3.23455 37027 ft 459 kts 174°
2026-05-06 17:21 53.98812 -3.21391 37013 ft 470 kts 167°
2026-05-06 17:21 53.92580 -3.17994 37009 ft 475 kts 160°
2026-05-06 17:22 53.86438 -3.13999 37008 ft 475 kts 160°
2026-05-06 17:22 53.80264 -3.10020 37008 ft 474 kts 160°
2026-05-06 17:23 53.74137 -3.06093 37008 ft 473 kts 160°
2026-05-06 17:23 53.68000 -3.02176 37008 ft 473 kts 160°
2026-05-06 17:24 53.61866 -2.98273 37012 ft 472 kts 160°
2026-05-06 17:24 53.55761 -2.94402 37011 ft 473 kts 160°
2026-05-06 17:25 53.49606 -2.90516 37009 ft 473 kts 160°
2026-05-06 17:25 53.43466 -2.86647 37009 ft 473 kts 160°
2026-05-06 17:26 53.37346 -2.82802 37009 ft 472 kts 160°
2026-05-06 17:26 53.31252 -2.78984 37006 ft 471 kts 160°
2026-05-06 17:27 53.25116 -2.75152 37009 ft 470 kts 160°
2026-05-06 17:27 53.18998 -2.71340 37006 ft 470 kts 160°
2026-05-06 17:28 53.12888 -2.67549 37008 ft 470 kts 160°
2026-05-06 17:28 53.06810 -2.63785 37003 ft 470 kts 160°
2026-05-06 17:29 53.00682 -2.60003 37007 ft 470 kts 160°
2026-05-06 17:29 52.94596 -2.56258 37006 ft 469 kts 160°
2026-05-06 17:30 52.88491 -2.52511 37004 ft 468 kts 160°
2026-05-06 17:30 52.82494 -2.48461 36931 ft 469 kts 155°
2026-05-06 17:30 52.79612 -2.46039 36729 ft 468 kts 151°
2026-05-06 17:31 52.76809 -2.43321 36538 ft 466 kts 148°
2026-05-06 17:31 52.74118 -2.40383 36342 ft 464 kts 146°
2026-05-06 17:31 52.71458 -2.37425 36063 ft 463 kts 146°
2026-05-06 17:31 52.68799 -2.34483 35616 ft 462 kts 147°
2026-05-06 17:32 52.66119 -2.31528 35035 ft 464 kts 147°
2026-05-06 17:32 52.63446 -2.28591 34318 ft 467 kts 147°
2026-05-06 17:32 52.60781 -2.25672 33570 ft 468 kts 147°
2026-05-06 17:32 52.58073 -2.22708 32802 ft 470 kts 147°
2026-05-06 17:33 52.55368 -2.19750 32022 ft 471 kts 147°
2026-05-06 17:33 52.52647 -2.16777 31225 ft 472 kts 147°
2026-05-06 17:33 52.49927 -2.13811 30370 ft 473 kts 147°
2026-05-06 17:33 52.47183 -2.10821 29501 ft 473 kts 147°
2026-05-06 17:34 52.44475 -2.07879 28636 ft 474 kts 147°
2026-05-06 17:34 52.41725 -2.04897 27741 ft 473 kts 147°
2026-05-06 17:34 52.38990 -2.01933 26820 ft 473 kts 147°
2026-05-06 17:34 52.36283 -1.99001 25888 ft 474 kts 147°
2026-05-06 17:35 52.33534 -1.96032 25176 ft 469 kts 147°
2026-05-06 17:35 52.30854 -1.93147 24616 ft 465 kts 147°
2026-05-06 17:35 52.28193 -1.90284 24029 ft 460 kts 147°
2026-05-06 17:36 52.22912 -1.84613 22859 ft 451 kts 147°
2026-05-06 17:36 52.20287 -1.81799 22253 ft 447 kts 147°
2026-05-06 17:36 52.17712 -1.79044 21658 ft 443 kts 147°
2026-05-06 17:36 52.15159 -1.76319 21058 ft 439 kts 147°
2026-05-06 17:37 52.12630 -1.73621 20456 ft 436 kts 147°
2026-05-06 17:37 52.10130 -1.70959 19860 ft 433 kts 147°
2026-05-06 17:37 52.07639 -1.68305 19517 ft 424 kts 147°
2026-05-06 17:37 52.05181 -1.65691 19139 ft 417 kts 147°
2026-05-06 17:38 52.02793 -1.63155 18805 ft 412 kts 147°
2026-05-06 17:38 52.00398 -1.60615 18458 ft 407 kts 147°
2026-05-06 17:38 51.98063 -1.58143 18109 ft 403 kts 147°
2026-05-06 17:38 51.95710 -1.55658 17758 ft 399 kts 147°
2026-05-06 17:39 51.93400 -1.53220 17415 ft 397 kts 147°
2026-05-06 17:39 51.91124 -1.50822 17078 ft 397 kts 147°
2026-05-06 17:39 51.88806 -1.48382 16725 ft 395 kts 147°
2026-05-06 17:39 51.86522 -1.45980 16380 ft 393 kts 147°
2026-05-06 17:40 51.84241 -1.43585 16037 ft 390 kts 147°
2026-05-06 17:40 51.81938 -1.41170 15690 ft 388 kts 147°
2026-05-06 17:40 51.79692 -1.38817 15354 ft 386 kts 147°
2026-05-06 17:40 51.77434 -1.36453 15060 ft 394 kts 147°
2026-05-06 17:41 51.75102 -1.34013 14991 ft 404 kts 147°
2026-05-06 17:41 51.72759 -1.31561 14989 ft 403 kts 147°
2026-05-06 17:41 51.70462 -1.29160 14986 ft 385 kts 147°
2026-05-06 17:41 51.68280 -1.26886 14985 ft 366 kts 147°
2026-05-06 17:42 51.66162 -1.24688 14988 ft 358 kts 147°
2026-05-06 17:42 51.64070 -1.22521 14987 ft 357 kts 147°
2026-05-06 17:42 51.62015 -1.20392 14988 ft 357 kts 147°
2026-05-06 17:42 51.59905 -1.18207 14988 ft 357 kts 147°
2026-05-06 17:43 51.57851 -1.16081 14988 ft 356 kts 147°
2026-05-06 17:43 51.55770 -1.13928 14987 ft 356 kts 147°
2026-05-06 17:43 51.53682 -1.11770 14771 ft 355 kts 147°
2026-05-06 17:43 51.51627 -1.09649 14521 ft 353 kts 147°
2026-05-06 17:44 51.49547 -1.07505 14265 ft 352 kts 147°
2026-05-06 17:44 51.47505 -1.05402 14034 ft 351 kts 147°
2026-05-06 17:44 51.45473 -1.03310 13985 ft 351 kts 147°
2026-05-06 17:44 51.43397 -1.01177 13981 ft 352 kts 147°
2026-05-06 17:45 51.41364 -0.99090 13977 ft 351 kts 147°
2026-05-06 17:45 51.39339 -0.97013 13972 ft 342 kts 147°
2026-05-06 17:45 51.37335 -0.94960 13974 ft 340 kts 147°
2026-05-06 17:45 51.35332 -0.92912 13976 ft 340 kts 147°
2026-05-06 17:46 51.33357 -0.90893 13976 ft 340 kts 147°
2026-05-06 17:46 51.31376 -0.88869 13930 ft 340 kts 147°
2026-05-06 17:46 51.29384 -0.86837 13737 ft 338 kts 147°
2026-05-06 17:46 51.27398 -0.84813 13536 ft 336 kts 147°
2026-05-06 17:47 51.25472 -0.82852 13246 ft 331 kts 147°
2026-05-06 17:47 51.23542 -0.80889 12892 ft 328 kts 147°
2026-05-06 17:47 51.21622 -0.78937 12541 ft 326 kts 147°
2026-05-06 17:47 51.19712 -0.76997 12186 ft 324 kts 147°
2026-05-06 17:48 51.17847 -0.75105 11813 ft 317 kts 147°
2026-05-06 17:48 51.15993 -0.73229 11430 ft 309 kts 147°
2026-05-06 17:48 51.14211 -0.71426 11069 ft 302 kts 147°
2026-05-06 17:48 51.12458 -0.69657 10977 ft 301 kts 147°
2026-05-06 17:49 51.10688 -0.67869 10766 ft 301 kts 147°
2026-05-06 17:49 51.08925 -0.66090 10489 ft 299 kts 147°
2026-05-06 17:49 51.07173 -0.64307 10211 ft 297 kts 144°
2026-05-06 17:49 51.05642 -0.62199 9994 ft 295 kts 131°
2026-05-06 17:50 51.04432 -0.59581 9776 ft 293 kts 118°
2026-05-06 17:50 51.03501 -0.56724 9527 ft 291 kts 114°
2026-05-06 17:50 51.02615 -0.53848 9270 ft 289 kts 112°
2026-05-06 17:50 51.01744 -0.50994 9031 ft 288 kts 113°
2026-05-06 17:51 51.00875 -0.48159 8974 ft 287 kts 114°
2026-05-06 17:51 50.99996 -0.45294 8966 ft 288 kts 115°
2026-05-06 17:51 50.99102 -0.42423 8961 ft 289 kts 115°
2026-05-06 17:51 50.98199 -0.39596 8973 ft 289 kts 115°
2026-05-06 17:52 50.97285 -0.36705 8964 ft 289 kts 114°
2026-05-06 17:52 50.96492 -0.33809 8946 ft 287 kts 102°
2026-05-06 17:52 50.96510 -0.30676 8964 ft 284 kts 75°
2026-05-06 17:52 50.97062 -0.27684 8969 ft 279 kts 71°
2026-05-06 17:53 50.97602 -0.24809 8958 ft 266 kts 73°
2026-05-06 17:53 50.98046 -0.22061 8949 ft 253 kts 75°
2026-05-06 17:53 50.98441 -0.19377 8955 ft 250 kts 77°
2026-05-06 17:53 50.98611 -0.16637 8961 ft 252 kts 97°
2026-05-06 17:54 50.98206 -0.13927 8956 ft 254 kts 107°
2026-05-06 17:54 50.97662 -0.11288 8960 ft 253 kts 106°
2026-05-06 17:54 50.97047 -0.08655 8947 ft 254 kts 117°
2026-05-06 17:54 50.95771 -0.06764 8938 ft 257 kts 156°
2026-05-06 17:55 50.94030 -0.06405 8942 ft 257 kts 194°
2026-05-06 17:55 50.92500 -0.07754 8959 ft 253 kts 232°
2026-05-06 17:55 50.91718 -0.10184 8958 ft 249 kts 263°
2026-05-06 17:55 50.91846 -0.12881 8957 ft 245 kts 292°
2026-05-06 17:56 50.92807 -0.15057 8953 ft 242 kts 324°
2026-05-06 17:56 50.94332 -0.16057 8964 ft 242 kts 354°
2026-05-06 17:56 50.96013 -0.16186 8969 ft 242 kts 354°
2026-05-06 17:56 50.97573 -0.17104 8951 ft 242 kts 320°
2026-05-06 17:57 50.98467 -0.19299 8950 ft 246 kts 283°
2026-05-06 17:57 50.98352 -0.21973 8961 ft 251 kts 248°
2026-05-06 17:57 50.97242 -0.24093 8963 ft 256 kts 211°
2026-05-06 17:57 50.95538 -0.24791 8959 ft 258 kts 174°
2026-05-06 17:58 50.93899 -0.23736 8968 ft 257 kts 136°
2026-05-06 17:58 50.92993 -0.21405 8977 ft 253 kts 103°
2026-05-06 17:58 50.92646 -0.18664 8983 ft 253 kts 100°
2026-05-06 17:58 50.92246 -0.15970 8975 ft 254 kts 101°
2026-05-06 17:59 50.91813 -0.13272 8979 ft 254 kts 102°
2026-05-06 17:59 50.91377 -0.10567 8976 ft 254 kts 101°
2026-05-06 17:59 50.90973 -0.07834 8976 ft 253 kts 101°
2026-05-06 17:59 50.91019 -0.05134 8953 ft 248 kts 67°
2026-05-06 18:00 50.92058 -0.03034 8950 ft 244 kts 29°
2026-05-06 18:00 50.93658 -0.02381 8955 ft 242 kts 355°
2026-05-06 18:00 50.95233 -0.03186 8944 ft 241 kts 324°
2026-05-06 18:00 50.96316 -0.05182 8755 ft 240 kts 294°
2026-05-06 18:01 50.96731 -0.07741 8397 ft 243 kts 278°
2026-05-06 18:01 50.96883 -0.10402 8015 ft 248 kts 273°
2026-05-06 18:01 50.96909 -0.13162 7636 ft 251 kts 272°
2026-05-06 18:01 50.96894 -0.15926 7253 ft 251 kts 271°
2026-05-06 18:02 50.96868 -0.18644 6873 ft 248 kts 271°
2026-05-06 18:02 50.96830 -0.21398 6510 ft 251 kts 271°
2026-05-06 18:02 50.96778 -0.24158 6212 ft 248 kts 271°
2026-05-06 18:02 50.96733 -0.26849 5894 ft 244 kts 271°
2026-05-06 18:03 50.96756 -0.29519 5545 ft 241 kts 277°
2026-05-06 18:03 50.97195 -0.32017 5177 ft 237 kts 294°
2026-05-06 18:03 50.97842 -0.34392 4829 ft 234 kts 296°
2026-05-06 18:03 50.98495 -0.36760 4452 ft 233 kts 296°
2026-05-06 18:04 50.99165 -0.39065 4081 ft 232 kts 297°
2026-05-06 18:04 50.99836 -0.41366 3718 ft 230 kts 296°
2026-05-06 18:04 51.00493 -0.43691 3330 ft 230 kts 297°
2026-05-06 18:04 51.01344 -0.45756 3018 ft 223 kts 323°
2026-05-06 18:05 51.02700 -0.46877 3014 ft 216 kts 342°
2026-05-06 18:05 51.04095 -0.47573 3005 ft 203 kts 346°
2026-05-06 18:05 51.05413 -0.48166 3018 ft 189 kts 346°
2026-05-06 18:05 51.06629 -0.48705 3041 ft 179 kts 346°
2026-05-06 18:06 51.07828 -0.49229 3017 ft 178 kts 349°
2026-05-06 18:06 51.09021 -0.49117 2993 ft 176 kts 25°
2026-05-06 18:06 51.09951 -0.47839 3015 ft 178 kts 48°
2026-05-06 18:06 51.10664 -0.46253 3012 ft 179 kts 59°
2026-05-06 18:07 51.11166 -0.44413 3008 ft 181 kts 69°
2026-05-06 18:07 51.11525 -0.42563 2946 ft 167 kts 71°
2026-05-06 18:07 51.11813 -0.40836 2728 ft 160 kts 73°
2026-05-06 18:07 51.12068 -0.39124 2515 ft 158 kts 74°
2026-05-06 18:08 51.12306 -0.37418 2307 ft 157 kts 74°
2026-05-06 18:08 51.12539 -0.35716 2096 ft 156 kts 75°
2026-05-06 18:08 51.12763 -0.34059 1894 ft 154 kts 75°
2026-05-06 18:08 51.12991 -0.32373 1704 ft 159 kts 75°
2026-05-06 18:09 51.13227 -0.30624 1492 ft 161 kts 76°
2026-05-06 18:09 51.13450 -0.28953 1250 ft 148 kts 74°
2026-05-06 18:09 51.13657 -0.27426 1050 ft 135 kts 76°
2026-05-06 18:09 51.13850 -0.26031 863 ft 125 kts 75°
2026-05-06 18:10 51.14037 -0.24682 709 ft 124 kts 75°
2026-05-06 18:10 51.14222 -0.23325 541 ft 124 kts 73°
2026-05-06 18:10 51.14401 -0.21989 388 ft 125 kts 75°
2026-05-06 18:10 51.14589 -0.20635 212 ft 125 kts 73°
2026-05-06 18:11 51.14764 -0.19430 192 ft 90 kts 78°
2026-05-06 18:11 51.14860 -0.18748 195 ft 40 kts 73°
2026-05-06 18:11 51.14989 -0.18421 195 ft 26 kts 52°
2026-05-06 18:11 51.15012 -0.18372 195 ft 0 kts 54°
2026-05-06 18:13 51.15013 -0.18371 195 ft 0 kts 54°
2026-05-06 18:13 51.15017 -0.18361 195 ft 2 kts 54°
2026-05-06 18:13 51.15058 -0.18278 195 ft 15 kts 52°
2026-05-06 18:14 51.15113 -0.18141 193 ft 12 kts 74°
2026-05-06 18:14 51.15135 -0.18007 195 ft 12 kts 76°
2026-05-06 18:14 51.15155 -0.17870 195 ft 13 kts 78°
2026-05-06 18:14 51.15174 -0.17715 193 ft 16 kts 78°
2026-05-06 18:15 51.15202 -0.17534 192 ft 15 kts 75°
2026-05-06 18:15 51.15206 -0.17512 192 ft 0 kts 77°
2026-05-06 18:17 51.15207 -0.17505 192 ft 4 kts 77°
2026-05-06 18:18 51.15235 -0.17310 185 ft 22 kts 77°
2026-05-06 18:18 51.15269 -0.17058 182 ft 23 kts 78°
2026-05-06 18:18 51.15298 -0.16816 186 ft 21 kts 80°
2026-05-06 18:18 51.15284 -0.16617 194 ft 15 kts 86°
2026-05-06 18:19 51.15305 -0.16470 199 ft 12 kts 74°
2026-05-06 18:19 51.15325 -0.16338 202 ft 11 kts 79°
2026-05-06 18:19 51.15339 -0.16288 203 ft 7 kts 41°
2026-05-06 18:19 51.15373 -0.16286 204 ft 0 kts 345°